Location: Newark
(51.7378°N, 19.8125°E)
Time: 03:01:13
(UTC+00:00)

Envisat - Pass Details

Date: 12 December 2019
Orbit: 764 x 766 km, 98.1° (Epoch: 23 January)

Event Time Altitude Azimuth Distance (km) Brightness Sun altitude
Rises 05:02:55 0° 19° (NNE) 3,247 6.2 -13.7°
Reaches altitude 10° 05:05:22 10° 26° (NNE) 2,316 5.6 -13.3°
Maximum altitude 05:10:12 42° 97° (E) 1,085 4.4 -12.6°
Drops below altitude 10° 05:15:00 10° 168° (SSE) 2,298 5.9 -11.9°
Sets 05:17:25 0° 176° (S) 3,219 6.6 -11.6°
